Regional Weather Roundup
Issued by NWS

Home | Current Version | Previous Version | Text Only | Print | Product List | Glossary Off
Versions: 1 2 3 4 5 6 7 8 9 10 11 12 13 14 15 16 17 18 19 20 21 22 23 24 25 26 27 28 29 30 31 32 33 34 35 36 37 38 39 40 41 42 43 44 45 46 47 48 49 50

000
ASUS43 KFSD 270202
RWRSD

WEATHER ROUNDUP FOR SOUTH DAKOTA
NATIONAL WEATHER SERVICE SIOUX FALLS SD
900 PM CDT TUE MAY 26 2015

NOTE: "FAIR" INDICATES FEW OR NO CLOUDS BELOW 12,000 FEET WITH NO
SIGNIFICANT WEATHER AND/OR OBSTRUCTIONS TO VISIBILITY.


SDZ001>005-009-010-012>017-270300-
NORTHWEST AND NORTH CENTRAL SOUTH DAKOTA

CITY           SKY/WX    TMP DP  RH WIND       PRES   REMARKS
FAITH            N/A     66  50  56 SW6       29.93R
MOBRIDGE       PTCLDY    70  52  52 CALM      29.85S
$$

SDZ012>016-024>037-041>051-057-063-072>074-270300-
SOUTHWEST AND SOUTH CENTRAL SOUTH DAKOTA

CITY           SKY/WX    TMP DP  RH WIND       PRES   REMARKS
RAPID CTY ARPT PTCLDY    62  50  64 S7        29.95R
PIERRE         CLEAR     70  45  40 E5        29.88R
CUSTER         CLOUDY    50  47  89 CALM      30.05R
ELLSWORTH AFB  PTCLDY    61  51  67 S7        29.95R
PHILIP         CLEAR     68  48  48 SW3       29.92R
PINE RIDGE     MOCLDY    60  48  64 SE8       29.97R
WINNER         FAIR      68  51  54 S7        29.92R
$$

SDZ004>011-016>023-039-040-270300-
NORTHEAST SOUTH DAKOTA

CITY           SKY/WX    TMP DP  RH WIND       PRES   REMARKS
ABERDEEN       CLOUDY    63  55  75 W7        29.84R
WATERTOWN      MOCLDY    62  55  77 W6        29.84S
BROOKINGS      CLOUDY    64  54  68 NW3       29.86R
$$

SDZ017-020-022-023-036>040-048>070-270300-
SOUTHEAST SOUTH DAKOTA

CITY           SKY/WX    TMP DP  RH WIND       PRES   REMARKS
SIOUX FALLS    CLOUDY    62  53  72 W3        29.85R
HURON          CLOUDY    66  51  58 NW10      29.86R
CHAMBERLAIN    MOCLDY    61  55  80 CALM      29.89R
MITCHELL       MOCLDY    70  52  52 CALM      29.86R
YANKTON        MOCLDY    70  50  49 CALM      29.85R
$$

ABBREVIATIONS USED IN REMARKS
   TC - TEMPERATURE IN CELSIUS
  WCI - WIND CHILL INDEX
   HX - HEAT INDEX
  VSB - VISIBILITY




USA.gov is the U.S. government's official web portal to all federal, state and local government web resources and services.